When you browse on this site, cookies collect data to enhance your experience and personalize the content and advertising you see.
Visit our Privacy Policy to learn more. By continuing to use the site, you agree to this use of cookies and data.
  • In Portugal
  • List of Countries
  • For 7 days
  • Water Temperature
  • Weather Map
  • Weather Widgets
  • user-avatar
    Login

    Hourly Weather Kobylczyna

    Today, 27 January, Monday

    Time Temperature Precipitation Wind Pressure Humidity
    00:00 0°C° 0 mm 1 mps 725 mmHg 73%
    01:00 0°C° 0 mm 1 mps 724 mmHg 71%
    02:00 0°C° 0 mm 1 mps 724 mmHg 70%
    03:00 0°C° 0 mm 1 mps 724 mmHg 68%
    04:00 0°C° 0 mm 1 mps 724 mmHg 67%
    05:00 0°C° 0 mm 1 mps 723 mmHg 67%
    06:00 0°C° 0 mm 1 mps 723 mmHg 68%
    07:00 -1°C° 0 mm 1 mps 723 mmHg 59%
    08:00 +1°C° 0 mm 1 mps 723 mmHg 58%
    09:00 +2°C° 0 mm 1 mps 723 mmHg 56%
    10:00 +3°C° 0 mm 1 mps 723 mmHg 55%
    11:00 +3°C° 0 mm 0 mps 723 mmHg 55%
    12:00 +3°C° 0 mm 0 mps 723 mmHg 55%
    13:00 +5°C° 0 mm 1 mps 723 mmHg 54%
    14:00 +4°C° 0 mm 1 mps 723 mmHg 59%
    15:00 +3°C° 0 mm 1 mps 722 mmHg 64%
    16:00 +2°C° 0 mm 1 mps 722 mmHg 70%
    17:00 +2°C° 0 mm 1 mps 722 mmHg 73%
    18:00 +1°C° 0 mm 1 mps 722 mmHg 75%
    19:00 +1°C° 0 mm 1 mps 722 mmHg 78%
    20:00 +1°C° 0 mm 1 mps 721 mmHg 80%
    21:00 +1°C° 0 mm 1 mps 721 mmHg 81%
    22:00 +1°C° 0 mm 1 mps 721 mmHg 83%
    23:00 -1°C° 0 mm 2 mps 720 mmHg 84%

    Tomorrow, 28 January, Tuesday

    Time Temperature Precipitation Wind Pressure Humidity
    00:00 -1°C° 0 mm 2 mps 720 mmHg 84%
    01:00 -1°C° 0 mm 2 mps 719 mmHg 85%
    02:00 -1°C° 0 mm 2 mps 719 mmHg 85%
    03:00 -1°C° 0 mm 2 mps 718 mmHg 85%
    04:00 -1°C° 0 mm 2 mps 718 mmHg 85%
    05:00 -1°C° 0 mm 2 mps 717 mmHg 85%
    06:00 -1°C° 0 mm 3 mps 717 mmHg 85%
    07:00 -1°C° 0 mm 3 mps 717 mmHg 85%
    08:00 0°C° 0 mm 3 mps 716 mmHg 81%
    09:00 +1°C° 0 mm 3 mps 716 mmHg 77%
    10:00 +1°C° 0 mm 4 mps 715 mmHg 74%
    11:00 +1°C° 0 mm 4 mps 715 mmHg 75%
    12:00 +2°C° 0 mm 3 mps 714 mmHg 77%
    13:00 +2°C° 0 mm 3 mps 714 mmHg 78%
    14:00 +1°C° 0.1 mm 3 mps 713 mmHg 80%
    15:00 +2°C° 0.1 mm 2 mps 712 mmHg 83%
    16:00 +1°C° 0.1 mm 2 mps 712 mmHg 85%
    17:00 +1°C° 0 mm 2 mps 712 mmHg 86%
    18:00 +1°C° 0 mm 2 mps 711 mmHg 86%
    19:00 -1°C° 0 mm 2 mps 711 mmHg 87%
    20:00 -1°C° 0.4 mm 2 mps 711 mmHg 90%
    21:00 -1°C° 0.4 mm 2 mps 711 mmHg 93%
    22:00 +1°C° 0.4 mm 1 mps 711 mmHg 96%
    23:00 -1°C° 0 mm 2 mps 710 mmHg 94%

    Day after tomorrow, 29 January, Wednesday

    Time Temperature Precipitation Wind Pressure Humidity
    00:00 -1°C° 0 mm 2 mps 710 mmHg 92%
    01:00 -1°C° 0 mm 3 mps 710 mmHg 90%
    02:00 -1°C° 0.1 mm 3 mps 710 mmHg 87%
    03:00 -2°C° 0.1 mm 4 mps 710 mmHg 85%
    04:00 -2°C° 0.1 mm 4 mps 711 mmHg 82%
    05:00 -2°C° 0 mm 4 mps 711 mmHg 81%
    06:00 -3°C° 0 mm 4 mps 712 mmHg 79%
    07:00 -3°C° 0 mm 4 mps 712 mmHg 78%
    08:00 -2°C° 0 mm 5 mps 712 mmHg 76%
    09:00 -3°C° 0 mm 6 mps 712 mmHg 74%
    10:00 -2°C° 0 mm 6 mps 712 mmHg 72%
    11:00 -2°C° 0.2 mm 7 mps 712 mmHg 77%
    12:00 -2°C° 0.2 mm 7 mps 712 mmHg 81%
    13:00 -4°C° 0.2 mm 8 mps 712 mmHg 86%
    14:00 -4°C° 0.2 mm 8 mps 713 mmHg 86%
    15:00 -4°C° 0.2 mm 8 mps 713 mmHg 86%
    16:00 -4°C° 0.2 mm 8 mps 713 mmHg 87%
    17:00 -3°C° 0 mm 7 mps 714 mmHg 88%
    18:00 -3°C° 0 mm 6 mps 714 mmHg 89%
    19:00 -3°C° 0 mm 6 mps 715 mmHg 90%
    20:00 -3°C° 0.1 mm 6 mps 715 mmHg 91%
    21:00 -4°C° 0.1 mm 6 mps 716 mmHg 93%
    22:00 -4°C° 0.1 mm 5 mps 716 mmHg 94%
    23:00 -4°C° 0.2 mm 5 mps 716 mmHg 93%

    30 January, Thursday

    Time Temperature Precipitation Wind Pressure Humidity
    00:00 -4°C° 0.2 mm 5 mps 717 mmHg 92%
    01:00 -4°C° 0.2 mm 5 mps 717 mmHg 91%
    02:00 -4°C° 0.1 mm 5 mps 718 mmHg 91%
    03:00 -4°C° 0.1 mm 6 mps 718 mmHg 91%
    04:00 -4°C° 0.1 mm 6 mps 718 mmHg 91%
    05:00 -4°C° 0.2 mm 6 mps 719 mmHg 92%
    06:00 -4°C° 0.2 mm 6 mps 719 mmHg 94%
    07:00 -4°C° 0.2 mm 6 mps 720 mmHg 95%
    08:00 -4°C° 0.1 mm 6 mps 720 mmHg 92%
    09:00 -3°C° 0.1 mm 6 mps 720 mmHg 88%
    10:00 -3°C° 0.1 mm 7 mps 721 mmHg 85%
    11:00 -2°C° 0 mm 6 mps 721 mmHg 80%
    12:00 -2°C° 0 mm 6 mps 721 mmHg 74%
    13:00 -1°C° 0 mm 6 mps 721 mmHg 69%
    14:00 -1°C° 0 mm 5 mps 721 mmHg 72%
    15:00 -1°C° 0 mm 4 mps 721 mmHg 75%
    16:00 -1°C° 0 mm 3 mps 721 mmHg 77%
    17:00 -2°C° 0 mm 3 mps 721 mmHg 78%
    18:00 -2°C° 0 mm 3 mps 721 mmHg 79%
    19:00 -2°C° 0 mm 2 mps 721 mmHg 80%
    20:00 -2°C° 0 mm 2 mps 721 mmHg 80%
    21:00 -2°C° 0 mm 2 mps 721 mmHg 80%
    22:00 -2°C° 0 mm 2 mps 720 mmHg 79%
    23:00 -2°C° 0 mm 2 mps 720 mmHg 79%

    31 January, Friday

    Time Temperature Precipitation Wind Pressure Humidity
    00:00 -2°C° 0 mm 2 mps 720 mmHg 78%
    01:00 -1°C° 0 mm 2 mps 720 mmHg 78%
    02:00 -1°C° 0 mm 2 mps 719 mmHg 78%
    03:00 -1°C° 0 mm 2 mps 719 mmHg 78%
    04:00 -1°C° 0 mm 2 mps 719 mmHg 78%
    05:00 -1°C° 0 mm 3 mps 718 mmHg 76%
    06:00 -1°C° 0 mm 3 mps 718 mmHg 75%
    07:00 -1°C° 0 mm 3 mps 717 mmHg 74%
    08:00 0°C° 0.5 mm 3 mps 717 mmHg 79%
    09:00 0°C° 0.5 mm 3 mps 717 mmHg 84%
    10:00 -1°C° 0.5 mm 4 mps 716 mmHg 89%
    11:00 0°C° 0.4 mm 4 mps 716 mmHg 89%
    12:00 +1°C° 0.4 mm 4 mps 716 mmHg 90%
    13:00 +3°C° 0.4 mm 4 mps 716 mmHg 91%
    14:00 +3°C° 0.2 mm 4 mps 716 mmHg 91%
    15:00 +3°C° 0.2 mm 4 mps 716 mmHg 91%
    16:00 +4°C° 0.2 mm 4 mps 716 mmHg 92%
    17:00 +4°C° 0.1 mm 4 mps 717 mmHg 92%
    18:00 +4°C° 0.1 mm 4 mps 717 mmHg 92%
    19:00 +4°C° 0.1 mm 4 mps 718 mmHg 93%
    20:00 +4°C° 0.1 mm 4 mps 718 mmHg 93%
    21:00 +4°C° 0.1 mm 3 mps 718 mmHg 94%
    22:00 +4°C° 0.1 mm 3 mps 718 mmHg 94%
    23:00 +4°C° 0 mm 3 mps 719 mmHg 93%

    1 February, Saturday

    Time Temperature Precipitation Wind Pressure Humidity
    00:00 +4°C° 0 mm 3 mps 719 mmHg 91%
    01:00 +4°C° 0 mm 3 mps 719 mmHg 90%
    02:00 +4°C° 0 mm 3 mps 719 mmHg 90%
    03:00 +4°C° 0 mm 3 mps 719 mmHg 89%
    04:00 +4°C° 0 mm 3 mps 719 mmHg 88%
    05:00 +4°C° 0 mm 3 mps 719 mmHg 88%
    06:00 +5°C° 0 mm 2 mps 719 mmHg 88%
    07:00 +5°C° 0 mm 2 mps 719 mmHg 88%
    08:00 +5°C° 0 mm 2 mps 719 mmHg 88%
    09:00 +5°C° 0 mm 2 mps 719 mmHg 88%
    10:00 +6°C° 0 mm 2 mps 719 mmHg 87%
    11:00 +7°C° 0 mm 3 mps 719 mmHg 85%
    12:00 +8°C° 0 mm 3 mps 719 mmHg 82%
    13:00 +9°C° 0 mm 3 mps 719 mmHg 79%
    14:00 +8°C° 0 mm 3 mps 719 mmHg 82%
    15:00 +7°C° 0 mm 3 mps 718 mmHg 85%
    16:00 +5°C° 0 mm 3 mps 718 mmHg 88%
    17:00 +5°C° 0 mm 3 mps 718 mmHg 87%
    18:00 +5°C° 0 mm 3 mps 718 mmHg 87%
    19:00 +5°C° 0 mm 3 mps 718 mmHg 87%
    20:00 +5°C° 0.1 mm 3 mps 718 mmHg 87%
    21:00 +5°C° 0.1 mm 4 mps 717 mmHg 87%
    22:00 +6°C° 0.1 mm 4 mps 717 mmHg 87%
    23:00 +6°C° 0.2 mm 5 mps 718 mmHg 87%
    Show more